Wetterdaten: Sonntag, 22.05.2016
Datum Zeit Auen-Temp. Temp gefhlt Luftfeuchte Luftdruck Regen Wind Richtung Richtung Sonnenschein Taupunkt Windben
22.05.2016 00:00 10,2 C 9,5 C 76 % 1016,7 hPa 0,0 mm 0,0 km/h (0 Bft) O-NO 67 0 min 6,2 C 0,0 km/h (0 Bft)
22.05.2016 00:05 10,1 C 9,6 C 76 % 1016,7 hPa 0,0 mm 0,0 km/h (0 Bft) NO 45 0 min 6,1 C 0,0 km/h (0 Bft)
22.05.2016 00:10 10,0 C 9,5 C 76 % 1016,7 hPa 0,0 mm 0,0 km/h (0 Bft) N-NO 22 0 min 6,0 C 0,0 km/h (0 Bft)
22.05.2016 00:15 9,9 C 9,3 C 76 % 1016,4 hPa 0,0 mm 0,0 km/h (0 Bft) NO 45 0 min 5,9 C 0,0 km/h (0 Bft)
22.05.2016 00:20 9,8 C 9,2 C 76 % 1016,4 hPa 0,0 mm 0,0 km/h (0 Bft) N 360 0 min 5,8 C 0,0 km/h (0 Bft)
22.05.2016 00:25 9,8 C 9,2 C 77 % 1016,4 hPa 0,0 mm 0,0 km/h (0 Bft) NO 45 0 min 6,0 C 0,0 km/h (0 Bft)
22.05.2016 00:30 9,7 C 9,2 C 77 % 1016,4 hPa 0,0 mm 0,0 km/h (0 Bft) O-NO 67 0 min 5,9 C 0,0 km/h (0 Bft)
22.05.2016 00:35 9,8 C 9,5 C 77 % 1016,3 hPa 0,0 mm 0,0 km/h (0 Bft) O-NO 67 0 min 6,0 C 0,0 km/h (0 Bft)
22.05.2016 00:40 9,8 C 9,5 C 77 % 1016,3 hPa 0,0 mm 0,0 km/h (0 Bft) N-NO 22 0 min 6,0 C 0,0 km/h (0 Bft)
22.05.2016 00:45 9,7 C 9,3 C 77 % 1016,3 hPa 0,0 mm 0,0 km/h (0 Bft) NO 45 0 min 5,9 C 0,0 km/h (0 Bft)
22.05.2016 00:50 9,6 C 9,1 C 77 % 1016,3 hPa 0,0 mm 0,0 km/h (0 Bft) NO 45 0 min 5,8 C 0,0 km/h (0 Bft)
22.05.2016 00:55 9,4 C 8,8 C 77 % 1016,1 hPa 0,0 mm 0,0 km/h (0 Bft) NO 45 0 min 5,6 C 0,0 km/h (0 Bft)
22.05.2016 01:00 9,3 C 8,8 C 78 % 1016,1 hPa 0,0 mm 0,0 km/h (0 Bft) O-NO 67 0 min 5,7 C 0,0 km/h (0 Bft)
22.05.2016 01:04 9,3 C 8,7 C 78 % 1016,1 hPa 0,0 mm 0,0 km/h (0 Bft) NO 45 0 min 5,7 C 0,0 km/h (0 Bft)
22.05.2016 01:10 9,2 C 8,8 C 78 % 1016,1 hPa 0,0 mm 0,0 km/h (0 Bft) NO 45 0 min 5,6 C 0,0 km/h (0 Bft)
22.05.2016 01:15 9,0 C 8,6 C 78 % 1015,9 hPa 0,0 mm 0,0 km/h (0 Bft) N-NO 22 0 min 5,4 C 0,0 km/h (0 Bft)
22.05.2016 01:20 9,0 C 8,5 C 78 % 1015,9 hPa 0,0 mm 0,0 km/h (0 Bft) NO 45 0 min 5,4 C 0,0 km/h (0 Bft)
22.05.2016 01:25 8,9 C 8,4 C 79 % 1015,9 hPa 0,0 mm 0,0 km/h (0 Bft) O-NO 67 0 min 5,5 C 0,0 km/h (0 Bft)
22.05.2016 01:30 8,9 C 8,4 C 79 % 1015,9 hPa 0,0 mm 0,0 km/h (0 Bft) N-NO 22 0 min 5,5 C 0,0 km/h (0 Bft)
22.05.2016 01:35 8,9 C 8,4 C 79 % 1015,8 hPa 0,0 mm 0,0 km/h (0 Bft) NO 45 0 min 5,5 C 0,0 km/h (0 Bft)
22.05.2016 01:40 8,9 C 8,3 C 79 % 1015,8 hPa 0,0 mm 0,0 km/h (0 Bft) NO 45 0 min 5,5 C 0,0 km/h (0 Bft)
22.05.2016 01:45 8,8 C 8,2 C 79 % 1015,8 hPa 0,0 mm 0,0 km/h (0 Bft) NO 45 0 min 5,4 C 0,0 km/h (0 Bft)
22.05.2016 01:50 8,7 C 8,0 C 79 % 1015,8 hPa 0,0 mm 0,0 km/h (0 Bft) NO 45 0 min 5,3 C 0,0 km/h (0 Bft)
22.05.2016 01:55 8,6 C 8,1 C 79 % 1015,5 hPa 0,0 mm 0,0 km/h (0 Bft) O-NO 67 0 min 5,2 C 0,0 km/h (0 Bft)
22.05.2016 02:00 8,7 C 8,1 C 79 % 1015,5 hPa 0,0 mm 0,0 km/h (0 Bft) NO 45 0 min 5,3 C 0,0 km/h (0 Bft)
22.05.2016 02:05 8,6 C 8,0 C 80 % 1015,5 hPa 0,0 mm 0,0 km/h (0 Bft) N-NO 22 0 min 5,3 C 0,0 km/h (0 Bft)
22.05.2016 02:10 8,5 C 8,1 C 80 % 1015,5 hPa 0,0 mm 0,0 km/h (0 Bft) N-NO 22 0 min 5,3 C 0,0 km/h (0 Bft)
22.05.2016 02:15 8,5 C 8,0 C 80 % 1015,4 hPa 0,0 mm 0,0 km/h (0 Bft) NO 45 0 min 5,3 C 0,0 km/h (0 Bft)
22.05.2016 02:20 8,5 C 8,0 C 80 % 1015,4 hPa 0,0 mm 0,0 km/h (0 Bft) NW 315 0 min 5,3 C 0,0 km/h (0 Bft)
22.05.2016 02:21 8,3 C 7,6 C 80 % 1015,4 hPa 0,0 mm 0,0 km/h (0 Bft) NW 315 0 min 5,1 C 0,0 km/h (0 Bft)
22.05.2016 02:26 8,3 C 7,6 C 80 % 1015,4 hPa 0,0 mm 0,0 km/h (0 Bft) NW 315 0 min 5,1 C 0,0 km/h (0 Bft)
22.05.2016 02:30 8,2 C 7,7 C 80 % 1015,4 hPa 0,0 mm 0,0 km/h (0 Bft) N-NW 337 0 min 5,0 C 0,0 km/h (0 Bft)
22.05.2016 02:35 8,2 C 7,6 C 80 % 1015,1 hPa 0,0 mm 0,0 km/h (0 Bft) N-NW 337 0 min 5,0 C 0,0 km/h (0 Bft)
22.05.2016 02:40 8,3 C 7,8 C 80 % 1015,1 hPa 0,0 mm 0,0 km/h (0 Bft) O-NO 67 0 min 5,1 C 0,0 km/h (0 Bft)
22.05.2016 02:45 8,4 C 7,9 C 81 % 1015,1 hPa 0,0 mm 0,0 km/h (0 Bft) N-NO 22 0 min 5,3 C 0,0 km/h (0 Bft)
22.05.2016 02:50 8,4 C 7,8 C 81 % 1015,1 hPa 0,0 mm 0,0 km/h (0 Bft) S-SO 157 0 min 5,3 C 0,0 km/h (0 Bft)
22.05.2016 02:55 8,5 C 8,0 C 81 % 1015,2 hPa 0,0 mm 0,0 km/h (0 Bft) O-NO 67 0 min 5,4 C 0,0 km/h (0 Bft)
22.05.2016 03:00 8,5 C 8,0 C 81 % 1015,2 hPa 0,0 mm 0,0 km/h (0 Bft) O 90 0 min 5,4 C 0,0 km/h (0 Bft)
22.05.2016 03:05 8,4 C 8,0 C 81 % 1015,2 hPa 0,0 mm 0,0 km/h (0 Bft) N-NW 337 0 min 5,3 C 0,0 km/h (0 Bft)
22.05.2016 03:10 8,5 C 8,0 C 81 % 1015,2 hPa 0,0 mm 0,0 km/h (0 Bft) S-SO 157 0 min 5,4 C 0,0 km/h (0 Bft)
22.05.2016 03:15 8,6 C 8,1 C 81 % 1014,6 hPa 0,0 mm 0,0 km/h (0 Bft) O-NO 67 0 min 5,5 C 0,0 km/h (0 Bft)
22.05.2016 03:20 8,6 C 8,0 C 81 % 1014,6 hPa 0,0 mm 0,0 km/h (0 Bft) N-NW 337 0 min 5,5 C 0,0 km/h (0 Bft)
22.05.2016 03:25 8,3 C 7,7 C 81 % 1014,6 hPa 0,0 mm 0,0 km/h (0 Bft) W 270 0 min 5,2 C 0,0 km/h (0 Bft)
22.05.2016 03:30 8,2 C 7,7 C 81 % 1014,6 hPa 0,0 mm 0,0 km/h (0 Bft) NO 45 0 min 5,1 C 0,0 km/h (0 Bft)
22.05.2016 03:35 8,1 C 7,5 C 81 % 1014,4 hPa 0,0 mm 0,0 km/h (0 Bft) NW 315 0 min 5,0 C 0,0 km/h (0 Bft)
22.05.2016 03:40 8,1 C 7,5 C 81 % 1014,4 hPa 0,0 mm 0,0 km/h (0 Bft) W-SW 247 0 min 5,0 C 0,0 km/h (0 Bft)
22.05.2016 03:45 8,0 C 7,4 C 81 % 1014,4 hPa 0,0 mm 0,0 km/h (0 Bft) N-NO 22 0 min 4,9 C 0,0 km/h (0 Bft)
22.05.2016 03:50 8,0 C 7,4 C 81 % 1014,4 hPa 0,0 mm 0,0 km/h (0 Bft) W 270 0 min 4,9 C 0,0 km/h (0 Bft)
22.05.2016 03:55 8,0 C 7,6 C 81 % 1014,6 hPa 0,0 mm 0,6 km/h (0 Bft) SW 225 0 min 4,9 C 3,6 km/h (1 Bft)
22.05.2016 04:00 8,2 C 8,2 C 82 % 1014,6 hPa 0,0 mm 2,4 km/h (1 Bft) SO 135 0 min 5,3 C 0,0 km/h (0 Bft)
22.05.2016 04:05 8,6 C 8,4 C 82 % 1014,6 hPa 0,0 mm 2,1 km/h (1 Bft) O-NO 67 0 min 5,7 C 13,4 km/h (3 Bft)
22.05.2016 04:10 8,6 C 8,1 C 82 % 1014,6 hPa 0,0 mm 0,0 km/h (0 Bft) N-NO 22 0 min 5,7 C 0,0 km/h (0 Bft)
22.05.2016 04:15 8,6 C 8,0 C 81 % 1014,2 hPa 0,0 mm 0,0 km/h (0 Bft) O-SO 112 0 min 5,5 C 0,0 km/h (0 Bft)
22.05.2016 04:20 8,8 C 8,1 C 81 % 1014,2 hPa 0,0 mm 0,0 km/h (0 Bft) SO 135 0 min 5,7 C 0,0 km/h (0 Bft)
22.05.2016 04:25 8,6 C 7,9 C 81 % 1014,2 hPa 0,0 mm 0,0 km/h (0 Bft) O-NO 67 0 min 5,5 C 0,0 km/h (0 Bft)
22.05.2016 04:30 8,4 C 7,7 C 81 % 1014,2 hPa 0,0 mm 0,0 km/h (0 Bft) O-NO 67 0 min 5,3 C 0,0 km/h (0 Bft)
22.05.2016 04:35 8,3 C 7,6 C 81 % 1014,1 hPa 0,0 mm 0,0 km/h (0 Bft) S-SO 157 0 min 5,2 C 0,0 km/h (0 Bft)
22.05.2016 04:40 8,4 C 7,9 C 81 % 1014,1 hPa 0,0 mm 0,9 km/h (0 Bft) S 180 0 min 5,3 C 10,1 km/h (2 Bft)
22.05.2016 04:45 9,0 C 8,7 C 81 % 1014,1 hPa 0,0 mm 5,7 km/h (1 Bft) SW 225 0 min 5,9 C 18,8 km/h (3 Bft)
22.05.2016 04:50 8,9 C 8,4 C 80 % 1014,1 hPa 0,0 mm 6,3 km/h (2 Bft) O-NO 67 0 min 5,6 C 0,0 km/h (0 Bft)
22.05.2016 04:55 8,6 C 8,4 C 80 % 1014,0 hPa 0,0 mm 1,8 km/h (1 Bft) S 180 0 min 5,3 C 0,0 km/h (0 Bft)
22.05.2016 05:00 8,7 C 8,7 C 80 % 1014,0 hPa 0,0 mm 1,5 km/h (1 Bft) W 270 0 min 5,4 C 0,0 km/h (0 Bft)
22.05.2016 05:05 8,7 C 8,4 C 80 % 1014,0 hPa 0,0 mm 1,2 km/h (1 Bft) S-SO 157 0 min 5,4 C 0,0 km/h (0 Bft)
22.05.2016 05:10 8,7 C 8,3 C 80 % 1014,0 hPa 0,0 mm 0,9 km/h (0 Bft) S-SO 157 0 min 5,4 C 0,0 km/h (0 Bft)
22.05.2016 05:15 8,6 C 8,0 C 80 % 1013,6 hPa 0,0 mm 0,0 km/h (0 Bft) S-SW 202 0 min 5,3 C 0,0 km/h (0 Bft)
22.05.2016 05:20 8,5 C 8,0 C 80 % 1013,6 hPa 0,0 mm 0,0 km/h (0 Bft) S 180 0 min 5,3 C 0,0 km/h (0 Bft)
22.05.2016 05:25 8,4 C 7,9 C 80 % 1013,6 hPa 0,0 mm 0,0 km/h (0 Bft) SO 135 0 min 5,2 C 0,0 km/h (0 Bft)
22.05.2016 05:26 8,3 C 7,7 C 79 % 1013,6 hPa 0,0 mm 0,0 km/h (0 Bft) SW 225 0 min 4,9 C 0,0 km/h (0 Bft)
22.05.2016 05:27 8,3 C 7,7 C 79 % 1013,6 hPa 0,0 mm 0,0 km/h (0 Bft) SW 225 0 min 4,9 C 0,0 km/h (0 Bft)
22.05.2016 05:30 8,3 C 7,7 C 79 % 1013,6 hPa 0,0 mm 0,0 km/h (0 Bft) SW 225 0 min 4,9 C 0,0 km/h (0 Bft)
22.05.2016 05:35 8,3 C 7,8 C 79 % 1013,7 hPa 0,0 mm 0,0 km/h (0 Bft) S-SW 202 0 min 4,9 C 0,0 km/h (0 Bft)
22.05.2016 05:40 8,3 C 8,0 C 80 % 1013,7 hPa 0,0 mm 0,3 km/h (0 Bft) S-SO 157 0 min 5,1 C 0,0 km/h (0 Bft)
22.05.2016 05:45 8,4 C 8,3 C 80 % 1013,7 hPa 0,0 mm 2,1 km/h (1 Bft) O-SO 112 0 min 5,2 C 7,2 km/h (2 Bft)
22.05.2016 05:50 8,7 C 8,9 C 80 % 1013,7 hPa 0,0 mm 4,5 km/h (1 Bft) SO 135 0 min 5,4 C 5,4 km/h (1 Bft)
22.05.2016 05:55 8,8 C 9,4 C 80 % 1013,6 hPa 0,0 mm 7,7 km/h (2 Bft) S-SW 202 0 min 5,5 C 7,2 km/h (2 Bft)
22.05.2016 06:00 8,8 C 10,3 C 80 % 1013,6 hPa 0,0 mm 6,6 km/h (2 Bft) S 180 0 min 5,5 C 3,0 km/h (1 Bft)
22.05.2016 06:05 8,9 C 11,5 C 80 % 1013,6 hPa 0,0 mm 4,2 km/h (1 Bft) SW 225 0 min 5,6 C 0,0 km/h (0 Bft)
22.05.2016 06:10 9,1 C 12,6 C 79 % 1013,6 hPa 0,0 mm 3,6 km/h (1 Bft) S 180 5 min 5,7 C 8,9 km/h (2 Bft)
22.05.2016 06:15 9,6 C 13,3 C 79 % 1013,6 hPa 0,0 mm 6,0 km/h (2 Bft) S 180 5 min 6,1 C 5,4 km/h (1 Bft)
22.05.2016 06:20 10,0 C 13,7 C 79 % 1013,6 hPa 0,0 mm 6,9 km/h (2 Bft) S-SW 202 5 min 6,5 C 5,1 km/h (1 Bft)
22.05.2016 06:25 10,2 C 14,3 C 78 % 1013,6 hPa 0,0 mm 2,4 km/h (1 Bft) SW 225 5 min 6,5 C 0,0 km/h (0 Bft)
22.05.2016 06:30 10,2 C 15,0 C 78 % 1013,6 hPa 0,0 mm 0,6 km/h (0 Bft) O-SO 112 5 min 6,5 C 0,0 km/h (0 Bft)
22.05.2016 06:35 10,2 C 16,2 C 78 % 1013,6 hPa 0,0 mm 0,0 km/h (0 Bft) S-SO 157 5 min 6,5 C 0,0 km/h (0 Bft)
22.05.2016 06:40 10,5 C 16,9 C 78 % 1013,6 hPa 0,0 mm 0,0 km/h (0 Bft) O-SO 112 5 min 6,8 C 0,0 km/h (0 Bft)
22.05.2016 06:45 11,3 C 18,1 C 78 % 1013,6 hPa 0,0 mm 0,0 km/h (0 Bft) O-NO 67 5 min 7,6 C 0,0 km/h (0 Bft)
22.05.2016 06:50 11,8 C 17,8 C 78 % 1013,6 hPa 0,0 mm 0,0 km/h (0 Bft) NO 45 5 min 8,1 C 0,0 km/h (0 Bft)
22.05.2016 06:55 12,3 C 18,8 C 77 % 1013,5 hPa 0,0 mm 0,0 km/h (0 Bft) NO 45 5 min 8,4 C 0,0 km/h (0 Bft)
22.05.2016 07:00 12,4 C 19,4 C 76 % 1013,5 hPa 0,0 mm 0,0 km/h (0 Bft) S-SW 202 5 min 8,3 C 0,0 km/h (0 Bft)
22.05.2016 07:05 11,9 C 18,9 C 75 % 1013,5 hPa 0,0 mm 0,0 km/h (0 Bft) S-SO 157 5 min 7,6 C 0,0 km/h (0 Bft)
22.05.2016 07:10 12,0 C 17,8 C 76 % 1013,5 hPa 0,0 mm 0,0 km/h (0 Bft) O-SO 112 5 min 7,9 C 0,0 km/h (0 Bft)
22.05.2016 07:15 12,8 C 18,7 C 76 % 1013,5 hPa 0,0 mm 0,0 km/h (0 Bft) W-NW 292 5 min 8,7 C 0,0 km/h (0 Bft)
22.05.2016 07:20 13,2 C 19,4 C 75 % 1013,5 hPa 0,0 mm 0,0 km/h (0 Bft) SO 135 5 min 8,9 C 0,0 km/h (0 Bft)
22.05.2016 07:25 13,4 C 21,1 C 75 % 1013,5 hPa 0,0 mm 0,0 km/h (0 Bft) NO 45 5 min 9,1 C 0,0 km/h (0 Bft)
22.05.2016 07:30 13,9 C 21,8 C 74 % 1013,5 hPa 0,0 mm 0,0 km/h (0 Bft) NO 45 5 min 9,3 C 0,0 km/h (0 Bft)
22.05.2016 07:35 14,5 C 22,7 C 73 % 1013,8 hPa 0,0 mm 0,0 km/h (0 Bft) NO 45 5 min 9,7 C 0,0 km/h (0 Bft)
22.05.2016 07:40 14,6 C 23,4 C 72 % 1013,8 hPa 0,0 mm 0,0 km/h (0 Bft) O 90 5 min 9,6 C 0,0 km/h (0 Bft)
22.05.2016 07:45 14,6 C 24,3 C 72 % 1013,8 hPa 0,0 mm 0,0 km/h (0 Bft) S-SO 157 5 min 9,6 C 0,0 km/h (0 Bft)
22.05.2016 07:50 15,4 C 25,2 C 72 % 1013,8 hPa 0,0 mm 0,0 km/h (0 Bft) NO 45 5 min 10,4 C 0,0 km/h (0 Bft)
22.05.2016 07:55 16,7 C 26,1 C 70 % 1013,9 hPa 0,0 mm 0,0 km/h (0 Bft) NO 45 5 min 11,2 C 0,0 km/h (0 Bft)
22.05.2016 08:00 17,0 C 26,7 C 69 % 1013,9 hPa 0,0 mm 0,0 km/h (0 Bft) NO 45 5 min 11,3 C 0,0 km/h (0 Bft)
22.05.2016 08:05 17,5 C 27,2 C 68 % 1013,9 hPa 0,0 mm 0,0 km/h (0 Bft) NO 45 5 min 11,5 C 0,0 km/h (0 Bft)
22.05.2016 08:10 17,4 C 28,0 C 67 % 1013,9 hPa 0,0 mm 0,0 km/h (0 Bft) NO 45 5 min 11,2 C 0,0 km/h (0 Bft)
22.05.2016 08:15 17,2 C 29,2 C 66 % 1013,9 hPa 0,0 mm 0,0 km/h (0 Bft) S 180 5 min 10,8 C 0,0 km/h (0 Bft)
22.05.2016 08:20 18,0 C 29,8 C 67 % 1013,9 hPa 0,0 mm 0,0 km/h (0 Bft) NO 45 5 min 11,8 C 0,0 km/h (0 Bft)
22.05.2016 08:25 18,9 C 29,6 C 65 % 1013,9 hPa 0,0 mm 0,0 km/h (0 Bft) NO 45 5 min 12,2 C 0,0 km/h (0 Bft)
22.05.2016 08:26 19,0 C 29,0 C 65 % 1013,9 hPa 0,0 mm 0,0 km/h (0 Bft) NO 45 1 min 12,3 C 0,0 km/h (0 Bft)
22.05.2016 08:28 19,0 C 29,0 C 65 % 1013,9 hPa 0,0 mm 0,0 km/h (0 Bft) NO 45 2 min 12,3 C 0,0 km/h (0 Bft)
22.05.2016 08:30 19,0 C 29,0 C 65 % 1013,9 hPa 0,0 mm 0,0 km/h (0 Bft) NO 45 2 min 12,3 C 0,0 km/h (0 Bft)
22.05.2016 08:35 19,7 C 29,6 C 64 % 1013,7 hPa 0,0 mm 0,0 km/h (0 Bft) O 90 5 min 12,7 C 0,0 km/h (0 Bft)
22.05.2016 08:40 19,9 C 30,2 C 63 % 1013,7 hPa 0,0 mm 0,0 km/h (0 Bft) NO 45 5 min 12,6 C 0,0 km/h (0 Bft)
22.05.2016 08:45 20,1 C 30,2 C 62 % 1013,7 hPa 0,0 mm 0,0 km/h (0 Bft) O-SO 112 5 min 12,6 C 0,0 km/h (0 Bft)
22.05.2016 08:50 20,3 C 30,2 C 61 % 1013,7 hPa 0,0 mm 0,0 km/h (0 Bft) NO 45 5 min 12,5 C 0,0 km/h (0 Bft)
22.05.2016 08:55 20,8 C 30,9 C 60 % 1013,9 hPa 0,0 mm 0,0 km/h (0 Bft) NO 45 5 min 12,7 C 0,0 km/h (0 Bft)
22.05.2016 09:00 21,4 C 31,3 C 59 % 1013,9 hPa 0,0 mm 0,0 km/h (0 Bft) N-NO 22 5 min 13,0 C 0,0 km/h (0 Bft)
22.05.2016 09:05 22,1 C 31,6 C 58 % 1013,9 hPa 0,0 mm 0,0 km/h (0 Bft) O-NO 67 5 min 13,4 C 0,0 km/h (0 Bft)
22.05.2016 09:10 22,1 C 31,3 C 57 % 1013,9 hPa 0,0 mm 0,0 km/h (0 Bft) O-NO 67 5 min 13,2 C 0,0 km/h (0 Bft)
22.05.2016 09:15 22,4 C 30,9 C 57 % 1014,0 hPa 0,0 mm 0,3 km/h (0 Bft) NO 45 5 min 13,5 C 0,0 km/h (0 Bft)
22.05.2016 09:20 22,6 C 31,5 C 56 % 1014,0 hPa 0,0 mm 0,3 km/h (0 Bft) N-NO 22 5 min 13,4 C 0,0 km/h (0 Bft)
22.05.2016 09:25 22,7 C 31,8 C 55 % 1014,0 hPa 0,0 mm 0,0 km/h (0 Bft) O-NO 67 5 min 13,2 C 0,0 km/h (0 Bft)
22.05.2016 09:30 22,8 C 31,6 C 55 % 1014,0 hPa 0,0 mm 0,0 km/h (0 Bft) O-NO 67 5 min 13,3 C 0,0 km/h (0 Bft)
22.05.2016 09:35 23,4 C 32,2 C 52 % 1014,5 hPa 0,0 mm 0,0 km/h (0 Bft) O-NO 67 5 min 13,0 C 0,0 km/h (0 Bft)
22.05.2016 09:40 23,5 C 32,3 C 52 % 1014,5 hPa 0,0 mm 0,3 km/h (0 Bft) W-NW 292 5 min 13,1 C 3,6 km/h (1 Bft)
22.05.2016 09:45 23,7 C 32,9 C 52 % 1014,5 hPa 0,0 mm 0,3 km/h (0 Bft) N-NO 22 5 min 13,2 C 0,0 km/h (0 Bft)
22.05.2016 09:50 23,8 C 32,9 C 51 % 1014,5 hPa 0,0 mm 0,3 km/h (0 Bft) O-SO 112 5 min 13,0 C 0,0 km/h (0 Bft)
22.05.2016 09:55 24,5 C 32,7 C 50 % 1014,8 hPa 0,0 mm 0,9 km/h (0 Bft) N-NW 337 5 min 13,4 C 4,5 km/h (1 Bft)
22.05.2016 10:00 24,7 C 32,7 C 50 % 1014,8 hPa 0,0 mm 1,5 km/h (1 Bft) SO 135 5 min 13,6 C 5,1 km/h (1 Bft)
22.05.2016 10:05 24,7 C 32,2 C 49 % 1014,8 hPa 0,0 mm 3,3 km/h (1 Bft) N-NO 22 5 min 13,3 C 4,8 km/h (1 Bft)
22.05.2016 10:10 24,6 C 31,9 C 47 % 1014,8 hPa 0,0 mm 4,5 km/h (1 Bft) N-NO 22 5 min 12,5 C 3,9 km/h (1 Bft)
22.05.2016 10:15 24,4 C 31,7 C 47 % 1014,9 hPa 0,0 mm 5,4 km/h (1 Bft) N-NW 337 5 min 12,3 C 6,0 km/h (2 Bft)
22.05.2016 10:20 24,5 C 31,4 C 47 % 1014,9 hPa 0,0 mm 6,0 km/h (2 Bft) N-NW 337 5 min 12,4 C 8,0 km/h (2 Bft)
22.05.2016 10:25 24,8 C 31,5 C 46 % 1014,9 hPa 0,0 mm 5,7 km/h (1 Bft) NO 45 5 min 12,4 C 10,7 km/h (2 Bft)
22.05.2016 10:30 24,8 C 31,6 C 46 % 1014,9 hPa 0,0 mm 4,2 km/h (1 Bft) S-SO 157 5 min 12,4 C 3,9 km/h (1 Bft)
22.05.2016 10:35 25,1 C 31,9 C 45 % 1015,1 hPa 0,0 mm 3,6 km/h (1 Bft) N 360 5 min 12,3 C 0,0 km/h (0 Bft)
22.05.2016 10:40 25,4 C 32,2 C 45 % 1015,1 hPa 0,0 mm 3,0 km/h (1 Bft) N-NW 337 5 min 12,6 C 0,0 km/h (0 Bft)
22.05.2016 10:45 25,4 C 31,9 C 43 % 1015,1 hPa 0,0 mm 5,4 km/h (1 Bft) NW 315 5 min 11,9 C 20,9 km/h (4 Bft)
22.05.2016 10:50 25,4 C 31,7 C 43 % 1015,1 hPa 0,0 mm 7,5 km/h (2 Bft) N-NO 22 5 min 11,9 C 14,9 km/h (3 Bft)
22.05.2016 10:55 25,5 C 31,4 C 42 % 1015,2 hPa 0,0 mm 8,3 km/h (2 Bft) N 360 5 min 11,6 C 14,3 km/h (3 Bft)
22.05.2016 11:00 25,5 C 31,4 C 41 % 1015,2 hPa 0,0 mm 8,9 km/h (2 Bft) N-NO 22 5 min 11,3 C 16,7 km/h (3 Bft)
22.05.2016 11:05 25,6 C 31,4 C 41 % 1015,2 hPa 0,0 mm 7,7 km/h (2 Bft) NO 45 5 min 11,4 C 3,6 km/h (1 Bft)
22.05.2016 11:10 25,7 C 31,6 C 39 % 1015,2 hPa 0,0 mm 7,2 km/h (2 Bft) NO 45 5 min 10,7 C 9,5 km/h (2 Bft)
22.05.2016 11:15 25,7 C 31,4 C 39 % 1015,2 hPa 0,0 mm 6,9 km/h (2 Bft) O 90 5 min 10,7 C 23,2 km/h (4 Bft)
22.05.2016 11:20 25,8 C 31,3 C 38 % 1015,2 hPa 0,0 mm 7,7 km/h (2 Bft) N-NO 22 5 min 10,4 C 6,6 km/h (2 Bft)
22.05.2016 11:25 26,0 C 31,4 C 37 % 1015,2 hPa 0,0 mm 8,0 km/h (2 Bft) SO 135 5 min 10,2 C 7,2 km/h (2 Bft)
22.05.2016 11:26 26,2 C 31,5 C 38 % 1015,2 hPa 0,0 mm 7,5 km/h (2 Bft) N-NO 22 1 min 10,7 C 8,9 km/h (2 Bft)
22.05.2016 11:29 26,2 C 31,5 C 38 % 1015,2 hPa 0,0 mm 7,5 km/h (2 Bft) N-NO 22 3 min 10,7 C 8,9 km/h (2 Bft)
22.05.2016 11:30 26,2 C 31,5 C 38 % 1015,2 hPa 0,0 mm 7,5 km/h (2 Bft) N-NO 22 1 min 10,7 C 8,9 km/h (2 Bft)
22.05.2016 11:35 26,4 C 31,8 C 38 % 1015,0 hPa 0,0 mm 7,5 km/h (2 Bft) NW 315 5 min 10,9 C 14,3 km/h (3 Bft)
22.05.2016 11:40 26,3 C 31,6 C 37 % 1015,0 hPa 0,0 mm 8,0 km/h (2 Bft) N-NO 22 5 min 10,4 C 3,6 km/h (1 Bft)
22.05.2016 11:45 26,5 C 31,9 C 38 % 1015,0 hPa 0,0 mm 8,6 km/h (2 Bft) W-NW 292 5 min 11,0 C 16,7 km/h (3 Bft)
22.05.2016 11:50 26,5 C 31,6 C 36 % 1015,0 hPa 0,0 mm 8,6 km/h (2 Bft) O-NO 67 5 min 10,2 C 10,1 km/h (2 Bft)
22.05.2016 11:55 26,5 C 31,4 C 36 % 1014,9 hPa 0,0 mm 10,1 km/h (2 Bft) NO 45 5 min 10,2 C 15,2 km/h (3 Bft)
22.05.2016 12:00 26,4 C 31,1 C 35 % 1014,9 hPa 0,0 mm 10,1 km/h (2 Bft) NO 45 5 min 9,7 C 11,3 km/h (2 Bft)
22.05.2016 12:05 26,3 C 30,7 C 34 % 1014,9 hPa 0,0 mm 12,8 km/h (3 Bft) N-NO 22 5 min 9,2 C 24,7 km/h (4 Bft)
22.05.2016 12:10 26,3 C 30,8 C 32 % 1014,9 hPa 0,0 mm 10,7 km/h (2 Bft) O-SO 112 5 min 8,3 C 5,1 km/h (1 Bft)
22.05.2016 12:15 26,6 C 31,7 C 35 % 1014,6 hPa 0,0 mm 7,7 km/h (2 Bft) NO 45 5 min 9,9 C 11,0 km/h (2 Bft)
22.05.2016 12:20 26,8 C 31,8 C 36 % 1014,6 hPa 0,0 mm 7,5 km/h (2 Bft) N-NW 337 5 min 10,5 C 6,0 km/h (2 Bft)
22.05.2016 12:25 26,9 C 32,1 C 35 % 1014,6 hPa 0,0 mm 8,6 km/h (2 Bft) N 360 5 min 10,1 C 11,9 km/h (2 Bft)
22.05.2016 12:30 26,9 C 31,9 C 33 % 1014,6 hPa 0,0 mm 10,1 km/h (2 Bft) N-NO 22 5 min 9,3 C 15,2 km/h (3 Bft)
22.05.2016 12:35 26,6 C 31,4 C 34 % 1014,4 hPa 0,0 mm 11,6 km/h (2 Bft) NO 45 5 min 9,4 C 7,5 km/h (2 Bft)
22.05.2016 12:40 26,9 C 31,8 C 35 % 1014,4 hPa 0,0 mm 10,1 km/h (2 Bft) N-NO 22 5 min 10,1 C 7,2 km/h (2 Bft)
22.05.2016 12:45 27,0 C 31,8 C 33 % 1014,4 hPa 0,0 mm 8,9 km/h (2 Bft) O-NO 67 5 min 9,3 C 7,7 km/h (2 Bft)
22.05.2016 12:50 26,8 C 31,8 C 33 % 1014,4 hPa 0,0 mm 8,9 km/h (2 Bft) N-NW 337 5 min 9,2 C 11,0 km/h (2 Bft)
22.05.2016 12:55 27,2 C 32,0 C 33 % 1014,1 hPa 0,0 mm 8,3 km/h (2 Bft) O-NO 67 5 min 9,5 C 16,4 km/h (3 Bft)
22.05.2016 13:00 27,4 C 31,8 C 33 % 1014,1 hPa 0,0 mm 10,4 km/h (2 Bft) N-NO 22 5 min 9,7 C 19,1 km/h (3 Bft)
22.05.2016 13:01 27,4 C 31,4 C 33 % 1014,1 hPa 0,0 mm 11,6 km/h (2 Bft) N-NW 337 1 min 9,7 C 14,0 km/h (3 Bft)
22.05.2016 13:04 27,4 C 31,4 C 33 % 1014,1 hPa 0,0 mm 11,6 km/h (2 Bft) N-NW 337 3 min 9,7 C 14,0 km/h (3 Bft)
22.05.2016 13:05 27,4 C 31,4 C 33 % 1014,1 hPa 0,0 mm 11,6 km/h (2 Bft) NO 45 1 min 9,7 C 14,0 km/h (3 Bft)
22.05.2016 13:10 27,2 C 30,7 C 30 % 1013,6 hPa 0,0 mm 14,3 km/h (3 Bft) N-NO 22 5 min 8,1 C 28,9 km/h (5 Bft)
22.05.2016 13:15 27,2 C 30,8 C 30 % 1013,6 hPa 0,0 mm 14,3 km/h (3 Bft) N-NW 337 5 min 8,1 C 16,4 km/h (3 Bft)
22.05.2016 13:20 27,5 C 31,3 C 32 % 1013,6 hPa 0,0 mm 10,4 km/h (2 Bft) O-NO 67 5 min 9,3 C 18,2 km/h (3 Bft)
22.05.2016 13:25 27,4 C 31,3 C 30 % 1013,6 hPa 0,0 mm 11,3 km/h (2 Bft) NO 45 5 min 8,3 C 8,6 km/h (2 Bft)
22.05.2016 13:30 27,7 C 31,7 C 32 % 1013,3 hPa 0,0 mm 11,3 km/h (2 Bft) N-NW 337 5 min 9,5 C 31,9 km/h (5 Bft)
22.05.2016 13:35 27,4 C 31,2 C 33 % 1013,3 hPa 0,0 mm 12,5 km/h (3 Bft) N-NW 337 5 min 9,7 C 19,1 km/h (3 Bft)
22.05.2016 13:40 27,4 C 30,9 C 34 % 1013,3 hPa 0,0 mm 15,8 km/h (3 Bft) N-NW 337 5 min 10,1 C 14,9 km/h (3 Bft)
22.05.2016 13:45 27,6 C 31,0 C 33 % 1013,3 hPa 0,0 mm 14,3 km/h (3 Bft) O-NO 67 5 min 9,9 C 17,9 km/h (3 Bft)
22.05.2016 13:50 27,3 C 30,8 C 33 % 1012,9 hPa 0,0 mm 14,9 km/h (3 Bft) NO 45 5 min 9,6 C 10,1 km/h (2 Bft)
22.05.2016 13:55 26,5 C 29,4 C 33 % 1012,9 hPa 0,0 mm 12,8 km/h (3 Bft) N-NO 22 5 min 8,9 C 0,0 km/h (0 Bft)
22.05.2016 14:00 26,8 C 29,8 C 34 % 1012,9 hPa 0,0 mm 10,4 km/h (2 Bft) NO 45 0 min 9,6 C 16,7 km/h (3 Bft)
22.05.2016 14:05 27,0 C 30,3 C 33 % 1012,9 hPa 0,0 mm 11,9 km/h (2 Bft) N-NO 22 5 min 9,3 C 10,7 km/h (2 Bft)
22.05.2016 14:10 26,5 C 29,0 C 34 % 1012,4 hPa 0,0 mm 12,5 km/h (3 Bft) NW 315 0 min 9,3 C 8,3 km/h (2 Bft)
22.05.2016 14:15 26,9 C 29,6 C 34 % 1012,4 hPa 0,0 mm 10,7 km/h (2 Bft) NO 45 0 min 9,7 C 19,1 km/h (3 Bft)
22.05.2016 14:20 27,4 C 31,0 C 34 % 1012,4 hPa 0,0 mm 10,1 km/h (2 Bft) N-NO 22 0 min 10,1 C 6,3 km/h (2 Bft)
22.05.2016 14:25 27,5 C 31,8 C 33 % 1012,4 hPa 0,0 mm 10,1 km/h (2 Bft) O-NO 67 5 min 9,8 C 9,5 km/h (2 Bft)
22.05.2016 14:28 27,7 C 32,2 C 32 % 1012,1 hPa 0,0 mm 8,9 km/h (2 Bft) N 360 3 min 9,5 C 19,4 km/h (3 Bft)
22.05.2016 14:30 27,7 C 32,2 C 32 % 1012,1 hPa 0,0 mm 8,9 km/h (2 Bft) N 360 2 min 9,5 C 19,4 km/h (3 Bft)
22.05.2016 14:35 27,5 C 32,0 C 31 % 1012,1 hPa 0,0 mm 8,9 km/h (2 Bft) W-NW 292 5 min 8,8 C 7,7 km/h (2 Bft)
22.05.2016 14:40 28,0 C 32,7 C 32 % 1012,1 hPa 0,0 mm 6,9 km/h (2 Bft) NW 315 5 min 9,7 C 0,0 km/h (0 Bft)
22.05.2016 14:45 28,2 C 33,3 C 33 % 1012,1 hPa 0,0 mm 8,3 km/h (2 Bft) W-NW 292 5 min 10,4 C 22,1 km/h (4 Bft)
22.05.2016 14:50 28,0 C 32,9 C 33 % 1011,7 hPa 0,0 mm 12,5 km/h (3 Bft) N 360 5 min 10,2 C 8,3 km/h (2 Bft)
22.05.2016 14:55 28,0 C 32,8 C 33 % 1011,7 hPa 0,0 mm 13,7 km/h (3 Bft) NW 315 5 min 10,2 C 12,5 km/h (3 Bft)
22.05.2016 15:00 27,1 C 30,3 C 32 % 1011,7 hPa 0,0 mm 10,1 km/h (2 Bft) W 270 5 min 9,0 C 17,0 km/h (3 Bft)
22.05.2016 15:05 26,9 C 29,2 C 33 % 1011,7 hPa 0,0 mm 8,0 km/h (2 Bft) NW 315 0 min 9,3 C 8,3 km/h (2 Bft)
22.05.2016 15:10 27,1 C 29,5 C 33 % 1011,4 hPa 0,0 mm 7,5 km/h (2 Bft) N-NO 22 0 min 9,4 C 7,5 km/h (2 Bft)
22.05.2016 15:15 27,1 C 29,9 C 32 % 1011,4 hPa 0,0 mm 8,3 km/h (2 Bft) N-NW 337 0 min 9,0 C 12,2 km/h (2 Bft)
22.05.2016 15:20 26,5 C 28,7 C 34 % 1011,4 hPa 0,0 mm 8,9 km/h (2 Bft) W-NW 292 0 min 9,3 C 14,0 km/h (3 Bft)
22.05.2016 15:25 26,2 C 28,1 C 35 % 1011,4 hPa 0,0 mm 9,2 km/h (2 Bft) NW 315 0 min 9,5 C 13,4 km/h (3 Bft)
22.05.2016 15:30 25,7 C 27,2 C 36 % 1011,1 hPa 0,0 mm 11,0 km/h (2 Bft) N-NW 337 0 min 9,5 C 15,2 km/h (3 Bft)
22.05.2016 15:35 25,7 C 26,8 C 34 % 1011,1 hPa 0,0 mm 12,5 km/h (3 Bft) NW 315 0 min 8,6 C 16,4 km/h (3 Bft)
22.05.2016 15:40 25,7 C 26,8 C 36 % 1011,1 hPa 0,0 mm 11,3 km/h (2 Bft) W 270 0 min 9,5 C 5,4 km/h (1 Bft)
22.05.2016 15:45 26,1 C 27,9 C 36 % 1011,1 hPa 0,0 mm 10,1 km/h (2 Bft) W 270 0 min 9,8 C 18,2 km/h (3 Bft)
22.05.2016 15:50 26,0 C 28,5 C 36 % 1010,8 hPa 0,0 mm 9,2 km/h (2 Bft) W 270 0 min 9,8 C 8,3 km/h (2 Bft)
22.05.2016 15:55 25,8 C 28,1 C 36 % 1010,8 hPa 0,0 mm 7,5 km/h (2 Bft) W-SW 247 0 min 9,6 C 4,8 km/h (1 Bft)
22.05.2016 16:00 26,2 C 29,5 C 36 % 1010,8 hPa 0,0 mm 4,2 km/h (1 Bft) S 180 0 min 9,9 C 9,2 km/h (2 Bft)
22.05.2016 16:05 26,6 C 30,9 C 36 % 1010,8 hPa 0,0 mm 3,6 km/h (1 Bft) W 270 5 min 10,3 C 11,9 km/h (2 Bft)
22.05.2016 16:10 26,9 C 32,1 C 35 % 1010,5 hPa 0,0 mm 4,8 km/h (1 Bft) W 270 5 min 10,1 C 14,0 km/h (3 Bft)
22.05.2016 16:15 26,8 C 31,9 C 34 % 1010,5 hPa 0,0 mm 6,9 km/h (2 Bft) W-NW 292 5 min 9,6 C 8,3 km/h (2 Bft)
22.05.2016 16:20 26,3 C 29,7 C 33 % 1010,5 hPa 0,0 mm 8,3 km/h (2 Bft) W 270 5 min 8,7 C 9,8 km/h (2 Bft)
22.05.2016 16:25 26,3 C 29,2 C 33 % 1010,5 hPa 0,0 mm 6,0 km/h (2 Bft) NW 315 0 min 8,7 C 8,0 km/h (2 Bft)
22.05.2016 16:30 26,7 C 29,9 C 31 % 1010,4 hPa 0,0 mm 6,6 km/h (2 Bft) N 360 5 min 8,2 C 4,5 km/h (1 Bft)
22.05.2016 16:35 26,7 C 29,9 C 32 % 1010,4 hPa 0,0 mm 7,2 km/h (2 Bft) SW 225 5 min 8,6 C 9,8 km/h (2 Bft)
22.05.2016 16:40 26,5 C 29,5 C 33 % 1010,4 hPa 0,0 mm 5,7 km/h (1 Bft) W-SW 247 5 min 8,9 C 0,0 km/h (0 Bft)
22.05.2016 16:45 26,1 C 28,8 C 34 % 1010,4 hPa 0,0 mm 3,9 km/h (1 Bft) O 90 5 min 9,0 C 7,5 km/h (2 Bft)
22.05.2016 16:50 25,8 C 28,0 C 36 % 1010,1 hPa 0,0 mm 1,8 km/h (1 Bft) NO 45 0 min 9,6 C 0,0 km/h (0 Bft)
22.05.2016 16:55 25,4 C 27,7 C 35 % 1010,1 hPa 0,0 mm 1,8 km/h (1 Bft) S-SO 157 0 min 8,8 C 3,9 km/h (1 Bft)
22.05.2016 17:00 25,4 C 27,2 C 31 % 1010,1 hPa 0,0 mm 1,8 km/h (1 Bft) S 180 0 min 7,0 C 6,6 km/h (2 Bft)
22.05.2016 17:05 25,6 C 27,0 C 30 % 1010,1 hPa 0,0 mm 5,7 km/h (1 Bft) SW 225 0 min 6,7 C 5,7 km/h (1 Bft)
22.05.2016 17:10 25,6 C 26,9 C 31 % 1010,1 hPa 0,0 mm 6,0 km/h (2 Bft) S 180 0 min 7,2 C 0,0 km/h (0 Bft)
22.05.2016 17:15 25,3 C 26,7 C 32 % 1010,1 hPa 0,0 mm 2,1 km/h (1 Bft) W-SW 247 0 min 7,4 C 0,0 km/h (0 Bft)
22.05.2016 17:20 25,1 C 26,3 C 30 % 1010,1 hPa 0,0 mm 2,4 km/h (1 Bft) S 180 0 min 6,3 C 13,1 km/h (3 Bft)
22.05.2016 17:25 25,2 C 26,2 C 30 % 1010,1 hPa 0,0 mm 4,8 km/h (1 Bft) W-SW 247 0 min 6,4 C 8,0 km/h (2 Bft)
22.05.2016 17:28 25,1 C 26,3 C 30 % 1009,6 hPa 0,0 mm 4,5 km/h (1 Bft) W 270 0 min 6,3 C 0,0 km/h (0 Bft)
22.05.2016 17:31 25,1 C 26,3 C 30 % 1009,6 hPa 0,0 mm 4,5 km/h (1 Bft) W 270 0 min 6,3 C 0,0 km/h (0 Bft)
22.05.2016 17:35 25,2 C 26,4 C 30 % 1009,6 hPa 0,0 mm 3,3 km/h (1 Bft) W-SW 247 0 min 6,4 C 9,8 km/h (2 Bft)
22.05.2016 17:40 25,3 C 26,5 C 30 % 1009,6 hPa 0,0 mm 3,0 km/h (1 Bft) W 270 0 min 6,5 C 0,0 km/h (0 Bft)
22.05.2016 17:45 25,4 C 26,4 C 28 % 1009,6 hPa 0,0 mm 3,3 km/h (1 Bft) W-NW 292 0 min 5,6 C 10,7 km/h (2 Bft)
22.05.2016 17:50 25,4 C 26,4 C 27 % 1009,7 hPa 0,0 mm 6,0 km/h (2 Bft) S 180 0 min 5,0 C 6,0 km/h (2 Bft)
22.05.2016 17:55 25,2 C 26,1 C 29 % 1009,7 hPa 0,0 mm 5,4 km/h (1 Bft) S-SO 157 0 min 5,9 C 0,0 km/h (0 Bft)
22.05.2016 18:00 24,8 C 25,6 C 30 % 1009,7 hPa 0,0 mm 1,2 km/h (1 Bft) SW 225 0 min 6,0 C 0,0 km/h (0 Bft)
22.05.2016 18:05 24,6 C 25,4 C 30 % 1009,7 hPa 0,0 mm 0,0 km/h (0 Bft) S 180 0 min 5,9 C 0,0 km/h (0 Bft)
22.05.2016 18:10 24,5 C 25,3 C 30 % 1009,6 hPa 0,0 mm 0,0 km/h (0 Bft) S-SW 202 0 min 5,8 C 0,0 km/h (0 Bft)
22.05.2016 18:15 24,3 C 25,1 C 32 % 1009,6 hPa 0,0 mm 0,0 km/h (0 Bft) S-SO 157 0 min 6,5 C 0,0 km/h (0 Bft)
22.05.2016 18:20 24,2 C 25,1 C 32 % 1009,6 hPa 0,0 mm 0,3 km/h (0 Bft) S-SW 202 0 min 6,5 C 8,3 km/h (2 Bft)
22.05.2016 18:25 24,4 C 25,4 C 32 % 1009,6 hPa 0,0 mm 2,4 km/h (1 Bft) SW 225 0 min 6,6 C 3,3 km/h (1 Bft)
22.05.2016 18:30 24,7 C 25,8 C 35 % 1009,7 hPa 0,0 mm 3,0 km/h (1 Bft) SW 225 0 min 8,2 C 3,6 km/h (1 Bft)
22.05.2016 18:35 25,0 C 26,2 C 36 % 1009,7 hPa 0,0 mm 1,2 km/h (1 Bft) W-SW 247 0 min 8,9 C 0,0 km/h (0 Bft)
22.05.2016 18:40 25,3 C 26,8 C 35 % 1009,7 hPa 0,0 mm 2,7 km/h (1 Bft) SW 225 0 min 8,7 C 10,4 km/h (2 Bft)
22.05.2016 18:45 25,2 C 26,5 C 36 % 1009,7 hPa 0,0 mm 3,9 km/h (1 Bft) W-SW 247 0 min 9,1 C 7,2 km/h (2 Bft)
22.05.2016 18:50 24,5 C 25,8 C 38 % 1009,7 hPa 0,0 mm 2,1 km/h (1 Bft) W 270 0 min 9,2 C 0,0 km/h (0 Bft)
22.05.2016 18:55 24,2 C 25,3 C 39 % 1009,7 hPa 0,0 mm 0,3 km/h (0 Bft) SW 225 0 min 9,4 C 0,0 km/h (0 Bft)
22.05.2016 19:00 24,1 C 25,0 C 39 % 1009,7 hPa 0,0 mm 4,5 km/h (1 Bft) S-SW 202 0 min 9,3 C 9,2 km/h (2 Bft)
22.05.2016 19:05 24,0 C 25,1 C 41 % 1009,7 hPa 0,0 mm 4,8 km/h (1 Bft) NW 315 0 min 9,9 C 0,0 km/h (0 Bft)
22.05.2016 19:10 23,7 C 25,0 C 44 % 1009,7 hPa 0,0 mm 2,4 km/h (1 Bft) SW 225 0 min 10,7 C 0,0 km/h (0 Bft)
22.05.2016 19:16 23,5 C 24,8 C 45 % 1009,7 hPa 0,0 mm 1,5 km/h (1 Bft) W-SW 247 0 min 10,9 C 0,0 km/h (0 Bft)
22.05.2016 19:20 23,2 C 24,2 C 46 % 1009,7 hPa 0,0 mm 1,2 km/h (1 Bft) SW 225 0 min 10,9 C 11,9 km/h (2 Bft)
22.05.2016 19:25 23,1 C 23,9 C 47 % 1009,7 hPa 0,0 mm 3,9 km/h (1 Bft) W 270 0 min 11,2 C 8,3 km/h (2 Bft)
22.05.2016 19:30 23,0 C 23,5 C 48 % 1009,8 hPa 0,0 mm 7,7 km/h (2 Bft) W-SW 247 0 min 11,4 C 9,5 km/h (2 Bft)
22.05.2016 19:35 22,7 C 23,1 C 49 % 1009,8 hPa 0,0 mm 7,7 km/h (2 Bft) W 270 0 min 11,4 C 6,3 km/h (2 Bft)
22.05.2016 19:40 22,5 C 22,7 C 51 % 1009,8 hPa 0,0 mm 6,0 km/h (2 Bft) W-SW 247 0 min 11,8 C 21,2 km/h (4 Bft)
22.05.2016 19:45 22,4 C 22,5 C 51 % 1009,8 hPa 0,0 mm 5,4 km/h (1 Bft) W-SW 247 0 min 11,8 C 4,5 km/h (1 Bft)
22.05.2016 19:50 22,0 C 22,0 C 52 % 1009,9 hPa 0,0 mm 4,2 km/h (1 Bft) S 180 0 min 11,7 C 0,0 km/h (0 Bft)
22.05.2016 19:55 21,8 C 21,7 C 53 % 1009,9 hPa 0,0 mm 2,1 km/h (1 Bft) W-SW 247 0 min 11,8 C 0,0 km/h (0 Bft)
22.05.2016 20:00 21,5 C 21,4 C 54 % 1009,9 hPa 0,0 mm 1,5 km/h (1 Bft) S 180 0 min 11,8 C 0,0 km/h (0 Bft)
22.05.2016 20:05 21,3 C 21,2 C 54 % 1009,9 hPa 0,0 mm 2,1 km/h (1 Bft) SO 135 0 min 11,6 C 0,0 km/h (0 Bft)
22.05.2016 20:10 21,2 C 21,0 C 54 % 1010,2 hPa 0,0 mm 1,5 km/h (1 Bft) W 270 0 min 11,5 C 4,2 km/h (1 Bft)
22.05.2016 20:15 21,1 C 20,8 C 54 % 1010,2 hPa 0,0 mm 0,9 km/h (0 Bft) S-SO 157 0 min 11,4 C 5,7 km/h (1 Bft)
22.05.2016 20:20 21,1 C 20,8 C 54 % 1010,2 hPa 0,0 mm 3,0 km/h (1 Bft) S-SW 202 0 min 11,4 C 3,3 km/h (1 Bft)
22.05.2016 20:25 21,0 C 20,5 C 54 % 1010,2 hPa 0,0 mm 2,7 km/h (1 Bft) SW 225 0 min 11,3 C 0,0 km/h (0 Bft)
22.05.2016 20:30 20,8 C 20,4 C 56 % 1010,1 hPa 0,0 mm 1,5 km/h (1 Bft) SO 135 0 min 11,7 C 0,0 km/h (0 Bft)
22.05.2016 20:32 20,8 C 20,4 C 56 % 1010,1 hPa 0,0 mm 1,5 km/h (1 Bft) SO 135 0 min 11,7 C 0,0 km/h (0 Bft)
22.05.2016 20:35 20,5 C 20,4 C 57 % 1010,1 hPa 0,0 mm 1,2 km/h (1 Bft) S-SO 157 0 min 11,7 C 0,0 km/h (0 Bft)
22.05.2016 20:40 20,1 C 20,2 C 57 % 1010,1 hPa 0,0 mm 0,0 km/h (0 Bft) SW 225 0 min 11,3 C 0,0 km/h (0 Bft)
22.05.2016 20:45 20,0 C 19,9 C 57 % 1010,1 hPa 0,0 mm 0,0 km/h (0 Bft) N-NW 337 0 min 11,2 C 0,0 km/h (0 Bft)
22.05.2016 20:50 19,6 C 19,3 C 59 % 1010,3 hPa 0,0 mm 0,0 km/h (0 Bft) SO 135 0 min 11,4 C 0,0 km/h (0 Bft)
22.05.2016 20:55 19,6 C 19,3 C 59 % 1010,3 hPa 0,0 mm 0,0 km/h (0 Bft) S-SO 157 0 min 11,4 C 0,0 km/h (0 Bft)
22.05.2016 21:00 19,4 C 19,2 C 60 % 1010,3 hPa 0,0 mm 0,0 km/h (0 Bft) S 180 0 min 11,4 C 0,0 km/h (0 Bft)
22.05.2016 21:05 19,4 C 19,3 C 60 % 1010,3 hPa 0,0 mm 0,0 km/h (0 Bft) S 180 0 min 11,4 C 0,0 km/h (0 Bft)
22.05.2016 21:10 18,8 C 19,0 C 60 % 1010,4 hPa 0,0 mm 0,0 km/h (0 Bft) SO 135 0 min 10,9 C 0,0 km/h (0 Bft)
22.05.2016 21:15 18,7 C 18,9 C 62 % 1010,4 hPa 0,0 mm 0,0 km/h (0 Bft) S-SO 157 0 min 11,3 C 0,0 km/h (0 Bft)
22.05.2016 21:20 18,5 C 19,1 C 62 % 1010,4 hPa 0,0 mm 0,0 km/h (0 Bft) NW 315 0 min 11,1 C 0,0 km/h (0 Bft)
22.05.2016 21:25 18,1 C 18,7 C 63 % 1010,4 hPa 0,0 mm 0,0 km/h (0 Bft) SO 135 0 min 10,9 C 0,0 km/h (0 Bft)
22.05.2016 21:30 18,4 C 18,6 C 63 % 1010,5 hPa 0,0 mm 0,6 km/h (0 Bft) S-SW 202 0 min 11,2 C 9,2 km/h (2 Bft)
22.05.2016 21:35 17,9 C 18,6 C 64 % 1010,5 hPa 0,0 mm 1,8 km/h (1 Bft) S 180 0 min 11,0 C 3,3 km/h (1 Bft)
22.05.2016 21:40 17,6 C 18,4 C 66 % 1010,5 hPa 0,0 mm 1,8 km/h (1 Bft) S 180 0 min 11,2 C 0,0 km/h (0 Bft)
22.05.2016 21:45 17,4 C 18,2 C 66 % 1010,5 hPa 0,0 mm 0,3 km/h (0 Bft) S-SO 157 0 min 11,0 C 0,0 km/h (0 Bft)
22.05.2016 21:50 17,4 C 18,0 C 67 % 1010,4 hPa 0,0 mm 0,0 km/h (0 Bft) SO 135 0 min 11,2 C 0,0 km/h (0 Bft)
22.05.2016 21:55 17,4 C 17,9 C 67 % 1010,4 hPa 0,0 mm 0,0 km/h (0 Bft) S-SW 202 0 min 11,2 C 0,0 km/h (0 Bft)
22.05.2016 22:00 17,5 C 18,0 C 66 % 1010,4 hPa 0,0 mm 5,1 km/h (1 Bft) S 180 0 min 11,1 C 7,2 km/h (2 Bft)
22.05.2016 22:05 17,6 C 18,0 C 66 % 1010,4 hPa 0,0 mm 7,5 km/h (2 Bft) S-SW 202 0 min 11,2 C 7,2 km/h (2 Bft)
22.05.2016 22:10 18,0 C 18,2 C 64 % 1010,8 hPa 0,0 mm 5,7 km/h (1 Bft) S-SO 157 0 min 11,1 C 3,3 km/h (1 Bft)
22.05.2016 22:15 17,5 C 17,8 C 64 % 1010,8 hPa 0,0 mm 3,0 km/h (1 Bft) NO 45 0 min 10,6 C 0,0 km/h (0 Bft)
22.05.2016 22:20 16,8 C 16,9 C 65 % 1010,8 hPa 0,0 mm 0,0 km/h (0 Bft) N-NO 22 0 min 10,2 C 0,0 km/h (0 Bft)
22.05.2016 22:25 16,8 C 16,7 C 65 % 1010,8 hPa 0,0 mm 2,4 km/h (1 Bft) W-SW 247 0 min 10,2 C 17,9 km/h (3 Bft)
22.05.2016 22:30 17,9 C 17,8 C 57 % 1011,3 hPa 0,0 mm 6,9 km/h (2 Bft) W-SW 247 0 min 9,3 C 11,0 km/h (2 Bft)
22.05.2016 22:35 18,6 C 18,3 C 52 % 1011,3 hPa 0,0 mm 11,9 km/h (2 Bft) W-SW 247 0 min 8,5 C 22,1 km/h (4 Bft)
22.05.2016 22:40 18,7 C 18,5 C 49 % 1011,3 hPa 0,0 mm 17,6 km/h (3 Bft) W-SW 247 0 min 7,8 C 45,9 km/h (6 Bft)
22.05.2016 22:45 18,6 C 18,5 C 48 % 1011,3 hPa 0,0 mm 19,4 km/h (3 Bft) W 270 0 min 7,4 C 16,1 km/h (3 Bft)
22.05.2016 22:50 18,6 C 18,2 C 49 % 1011,6 hPa 0,0 mm 16,1 km/h (3 Bft) W 270 0 min 7,7 C 11,3 km/h (2 Bft)
22.05.2016 22:55 18,6 C 18,0 C 49 % 1011,6 hPa 0,0 mm 14,0 km/h (3 Bft) SW 225 0 min 7,7 C 27,1 km/h (4 Bft)
22.05.2016 23:00 18,6 C 17,7 C 49 % 1011,6 hPa 0,0 mm 13,4 km/h (3 Bft) W-SW 247 0 min 7,7 C 16,7 km/h (3 Bft)
22.05.2016 23:05 18,6 C 17,6 C 49 % 1011,6 hPa 0,0 mm 11,0 km/h (2 Bft) NW 315 0 min 7,7 C 14,6 km/h (3 Bft)
22.05.2016 23:10 18,6 C 17,4 C 49 % 1012,2 hPa 0,0 mm 10,7 km/h (2 Bft) W 270 0 min 7,7 C 14,0 km/h (3 Bft)
22.05.2016 23:15 18,6 C 17,3 C 49 % 1012,2 hPa 0,0 mm 13,4 km/h (3 Bft) W-SW 247 0 min 7,7 C 28,6 km/h (4 Bft)
22.05.2016 23:20 18,6 C 17,0 C 49 % 1012,2 hPa 0,0 mm 12,8 km/h (3 Bft) W 270 0 min 7,7 C 12,5 km/h (3 Bft)
22.05.2016 23:25 18,6 C 16,8 C 49 % 1012,2 hPa 0,0 mm 12,2 km/h (2 Bft) W 270 0 min 7,7 C 18,5 km/h (3 Bft)
22.05.2016 23:30 18,6 C 16,6 C 49 % 1012,7 hPa 0,0 mm 10,7 km/h (2 Bft) NW 315 0 min 7,7 C 6,9 km/h (2 Bft)
22.05.2016 23:33 18,6 C 16,6 C 49 % 1012,7 hPa 0,0 mm 10,7 km/h (2 Bft) NW 315 0 min 7,7 C 6,9 km/h (2 Bft)
22.05.2016 23:35 18,6 C 16,4 C 49 % 1012,7 hPa 0,0 mm 9,2 km/h (2 Bft) SW 225 0 min 7,7 C 4,8 km/h (1 Bft)
22.05.2016 23:40 18,6 C 16,1 C 49 % 1012,7 hPa 0,0 mm 8,3 km/h (2 Bft) W 270 0 min 7,7 C 10,7 km/h (2 Bft)
22.05.2016 23:45 18,6 C 15,9 C 49 % 1012,7 hPa 0,0 mm 7,2 km/h (2 Bft) W-SW 247 0 min 7,7 C 10,1 km/h (2 Bft)
22.05.2016 23:50 18,6 C 15,6 C 49 % 1012,6 hPa 0,0 mm 3,9 km/h (1 Bft) W 270 0 min 7,7 C 0,0 km/h (0 Bft)
22.05.2016 23:55 18,6 C 15,4 C 49 % 1012,6 hPa 0,0 mm 3,0 km/h (1 Bft) W-SW 247 0 min 7,7 C 0,0 km/h (0 Bft)
_ Min-Zeit 03:55 03:50 17:50 18:25 - 22:20 - - - 05:35 23:55
Minimum _ 8,0 C 7,4 C 27 % 1009,6 hPa - 0,0 km/h (0 Bft) - - - 4,9 C 0,0 km/h (0 Bft)
_ Max-Zeit 14:45 14:45 04:10 00:10 23:55 22:45 - - 16:45 10:00 22:40
Maximum _ 28,2 C 33,3 C 82 % 1016,7 hPa 0,0 mm 19,4 km/h
W (3 Bft)
- - 5 min 13,6 C 45,9 km/h
W-SW (6 Bft)
Durchschnitt _ 18,8 C 21,4 C 56 % 1013,0 hPa #0,0 mm 4,0 km/h (1 Bft) W - #9:15 h 8,7 C 5,3 km/h (1 Bft)